Weather History for Glasgow, MT

Change the Weather History Date:

Thursday, March 27, 2014

  Actual Average Record
Temperature  
Mean Temperature 26 °F 37 °F  
Max Temperature 32 °F 49 °F 78 °F (1946)
Min Temperature 20 °F 26 °F -27 °F (1898)
Degree Days  
Heating Degree Days 39 28  
Month to date heating degree days 1017 925  
Since 1 July heating degree days 7665 7295  
Cooling Degree Days 0 0  
Month to date cooling degree days 0 0  
Year to date cooling degree days 0 0  
Moisture  
Dew Point 20 °F    
Average Humidity 73    
Maximum Humidity 92    
Minimum Humidity 53    
Precipitation  
Precipitation 0.09 in 0.02 in 0.84 in (1907)
Month to date precipitation 0.58 0.35  
Year to date precipitation 0.93 0.98  
Snow  
Snow 1.30 in 0.20 in 3.30 in (1979)
Month to date snowfall 4.8 4.2  
Since 1 July snowfall 28.6 31.2  
Snow Depth 0.00 in    
Sea Level Pressure  
Sea Level Pressure 29.88 in    
Wind  
Wind Speed 11 mph (ENE)    
Max Wind Speed 17 mph    
Max Gust Speed 21 mph    
Visibility 6 miles    
Events Snow    
T = Trace of Precipitation, MM = Missing Value Source: NWS Daily Summary

Daily Weather History Graph

Daily Weather History Graph

Search for Another Location

Airport:

Trip Planner

Search our weather history database for the weather conditions in past years. The results will help you decide how hot, cold, wet, or windy it might be!

Date:

Astronomy

Mar. 27, 2014 Rise Set
Actual Time 6:54 AM MDT 7:29 PM MDT
Civil Twilight 6:23 AM MDT 8:01 PM MDT
Nautical Twilight 5:46 AM MDT 8:38 PM MDT
Astronomical Twilight 5:07 AM MDT 9:17 PM MDT
Moon 5:02 AM MDT (3/27) 4:07 PM MDT (3/27)
Length of Visible Light 13h 37m
Length of Day
12h 34m
Waning Crescent, 12% of the Moon is Illuminated
Mar 27
Waning Crescent
Mar 30
New
Apr 7
First Quarter
Apr 15
Full
Apr 22
Last Quarter

Hourly Weather History & Observations

Time (MDT) Temp. Windchill Dew Point Humidity Pressure Visibility Wind Dir Wind Speed Gust Speed Precip Events Conditions
12:53 AM 24.1 °F 11.5 °F 17.1 °F 75% 29.76 in 10.0 mi NE 15.0 mph - N/A   Overcast
1:53 AM 25.0 °F 14.8 °F 18.0 °F 75% 29.78 in 10.0 mi ENE 10.4 mph - N/A   Overcast
2:53 AM 25.0 °F 16.3 °F 17.1 °F 72% 29.78 in 10.0 mi ENE 8.1 mph - N/A   Overcast
3:53 AM 24.1 °F 14.4 °F 17.1 °F 75% 29.79 in 10.0 mi East 9.2 mph - N/A   Overcast
4:53 AM 24.1 °F 13.7 °F 17.1 °F 75% 29.79 in 10.0 mi East 10.4 mph - N/A   Overcast
5:53 AM 21.0 °F 10.6 °F 16.0 °F 81% 29.83 in 10.0 mi NE 9.2 mph - N/A   Partly Cloudy
6:53 AM 21.9 °F 12.5 °F 17.1 °F 82% 29.86 in 10.0 mi ENE 8.1 mph - N/A   Overcast
7:53 AM 23.0 °F 11.7 °F 18.0 °F 81% 29.86 in 10.0 mi East 11.5 mph - N/A   Scattered Clouds
8:53 AM 24.1 °F 12.0 °F 17.1 °F 75% 29.88 in 10.0 mi ESE 13.8 mph - N/A   Overcast
9:53 AM 24.1 °F 11.5 °F 17.1 °F 75% 29.89 in 10.0 mi ESE 15.0 mph - N/A   Overcast
10:53 AM 26.1 °F 14.5 °F 17.1 °F 69% 29.89 in 10.0 mi ESE 13.8 mph - N/A   Overcast
11:53 AM 26.1 °F 15.6 °F 16.0 °F 66% 29.90 in 10.0 mi ESE 11.5 mph - N/A   Overcast
12:53 PM 28.0 °F 18.6 °F 16.0 °F 61% 29.90 in 10.0 mi ESE 10.4 mph - N/A   Overcast
1:53 PM 28.9 °F 19.2 °F 17.1 °F 61% 29.88 in 10.0 mi East 11.5 mph - N/A   Overcast
2:53 PM 30.9 °F 23.5 °F 16.0 °F 54% 29.88 in 10.0 mi East 8.1 mph - N/A   Overcast
3:53 PM 30.9 °F 22.2 °F 17.1 °F 57% 29.87 in 10.0 mi East 10.4 mph - N/A   Overcast
4:53 PM 30.9 °F 22.8 °F 19.0 °F 61% 29.87 in 3.0 mi East 9.2 mph - 0.00 in Snow Light Snow
5:53 PM 30.0 °F 21.1 °F 21.0 °F 69% 29.89 in 7.0 mi East 10.4 mph - 0.00 in   Overcast
6:51 PM 28.4 °F 18.0 °F 21.2 °F 74% 29.81 in 2.5 mi ENE 12.7 mph - 0.00 in Snow Light Snow
6:53 PM 28.9 °F 19.2 °F 21.0 °F 72% 29.91 in 2.5 mi ENE 11.5 mph - 0.00 in Snow Light Snow
7:08 PM 28.0 °F 18.6 °F 21.9 °F 78% 29.82 in 1.8 mi East 10.4 mph - 0.00 in Snow Light Snow
7:36 PM 27.0 °F 18.0 °F 23.0 °F 85% 29.82 in 1.2 mi ENE 9.2 mph - 0.00 in Snow Light Snow
7:45 PM 27.0 °F 18.0 °F 23.0 °F 85% 29.83 in 2.0 mi ENE 9.2 mph - 0.00 in Snow Light Snow
7:53 PM 27.0 °F 16.7 °F 23.0 °F 85% 29.94 in 2.5 mi ENE 11.5 mph - 0.00 in Snow Light Snow
8:16 PM 27.0 °F 16.7 °F 23.0 °F 85% 29.84 in 1.5 mi ENE 11.5 mph - 0.01 in Snow Light Snow
8:33 PM 26.1 °F 15.6 °F 24.1 °F 92% 29.85 in 2.0 mi ENE 11.5 mph - 0.01 in Snow Light Snow
8:53 PM 26.1 °F 15.0 °F 23.0 °F 88% 29.96 in 1.8 mi NE 12.7 mph - 0.02 in Snow Light Snow
9:18 PM 26.1 °F 15.0 °F 23.0 °F 88% 29.87 in 1.2 mi ENE 12.7 mph - 0.00 in Snow Light Snow
9:34 PM 26.1 °F 15.0 °F 23.0 °F 88% 29.87 in 1.5 mi ENE 12.7 mph - 0.01 in Snow Light Snow
9:53 PM 25.0 °F 14.2 °F 23.0 °F 92% 29.98 in 1.8 mi ENE 11.5 mph - 0.02 in Snow Light Snow
10:01 PM 25.0 °F 14.2 °F 23.0 °F 92% 29.88 in 2.5 mi ENE 11.5 mph - 0.00 in Snow Light Snow
10:27 PM 25.0 °F 15.5 °F 23.0 °F 92% 29.88 in 3.0 mi ENE 9.2 mph - 0.00 in Snow Light Snow
10:33 PM 25.0 °F 15.5 °F 23.0 °F 92% 29.89 in 2.5 mi ENE 9.2 mph - 0.00 in Snow Light Snow
10:50 PM 24.8 °F 15.3 °F 23.0 °F 93% 29.89 in 3.0 mi ENE 9.2 mph - 0.01 in Snow Light Snow
10:53 PM 25.0 °F 16.3 °F 23.0 °F 92% 29.99 in 3.0 mi ENE 8.1 mph - 0.01 in Snow Light Snow
11:23 PM 25.0 °F 16.3 °F 23.0 °F 92% 29.90 in 2.0 mi ENE 8.1 mph - 0.00 in Snow Light Snow
11:30 PM 25.0 °F 16.3 °F 23.0 °F 92% 29.91 in 1.8 mi NE 8.1 mph - 0.00 in Snow Light Snow
11:43 PM 25.0 °F 16.3 °F 23.0 °F 92% 29.91 in 1.5 mi ENE 8.1 mph - 0.01 in Snow Light Snow
11:53 PM 25.0 °F 14.8 °F 23.0 °F 92% 30.01 in 1.5 mi ENE 10.4 mph - 0.01 in Snow Light Snow